When you browse on this site, cookies collect data to enhance your experience and personalize the content and advertising you see.
Visit our Privacy Policy to learn more. By continuing to use the site, you agree to this use of cookies and data.
  • In Switzerland
  • List of Countries
  • For 7 days
  • Water Temperature
  • Satellite Maps
  • Weather Map
  • Weather Widgets
  • user-avatar
    Login

    Hourly Weather Enilchek

    Today, 22 January, Tuesday

    Time Temperature Precipitation Wind Pressure Humidity
    00:00 -13°C° 0 mm 1 mps 506 mmHg 75%
    01:00 -14°C° 0 mm 1 mps 505 mmHg 75%
    02:00 -14°C° 0 mm 1 mps 505 mmHg 74%
    03:00 -14°C° 0 mm 1 mps 505 mmHg 73%
    04:00 -14°C° 0 mm 1 mps 505 mmHg 71%
    05:00 -13°C° 0 mm 1 mps 505 mmHg 72%
    06:00 -15°C° 0 mm 2 mps 505 mmHg 73%
    07:00 -15°C° 0 mm 2 mps 505 mmHg 75%
    08:00 -15°C° 0 mm 2 mps 505 mmHg 76%
    09:00 -14°C° 0 mm 2 mps 505 mmHg 73%
    10:00 -13°C° 0 mm 2 mps 505 mmHg 71%
    11:00 -13°C° 0 mm 3 mps 505 mmHg 68%
    12:00 -13°C° 0 mm 3 mps 505 mmHg 66%
    13:00 -12°C° 0 mm 3 mps 505 mmHg 64%
    14:00 -12°C° 0 mm 3 mps 505 mmHg 62%
    15:00 -12°C° 0 mm 2 mps 505 mmHg 63%
    16:00 -13°C° 0 mm 2 mps 504 mmHg 64%
    17:00 -14°C° 0 mm 2 mps 504 mmHg 65%
    18:00 -14°C° 0 mm 2 mps 504 mmHg 65%
    19:00 -14°C° 0 mm 2 mps 504 mmHg 66%
    20:00 -14°C° 0 mm 2 mps 504 mmHg 66%
    21:00 -13°C° 0 mm 1 mps 504 mmHg 67%
    22:00 -13°C° 0 mm 1 mps 503 mmHg 67%
    23:00 -13°C° 0 mm 1 mps 503 mmHg 67%

    Tomorrow, 23 January, Wednesday

    Time Temperature Precipitation Wind Pressure Humidity
    00:00 -13°C° 0 mm 1 mps 503 mmHg 67%
    01:00 -13°C° 0 mm 1 mps 503 mmHg 67%
    02:00 -13°C° 0 mm 1 mps 503 mmHg 66%
    03:00 -13°C° 0 mm 1 mps 503 mmHg 66%
    04:00 -13°C° 0 mm 1 mps 503 mmHg 65%
    05:00 -13°C° 0 mm 1 mps 503 mmHg 64%
    06:00 -13°C° 0 mm 1 mps 503 mmHg 65%
    07:00 -13°C° 0 mm 1 mps 504 mmHg 65%
    08:00 -13°C° 0 mm 1 mps 504 mmHg 65%
    09:00 -12°C° 0 mm 1 mps 505 mmHg 64%
    10:00 -11°C° 0 mm 1 mps 505 mmHg 64%
    11:00 -10°C° 0 mm 1 mps 506 mmHg 63%
    12:00 -9°C° 0 mm 1 mps 506 mmHg 64%
    13:00 -9°C° 0 mm 1 mps 506 mmHg 65%
    14:00 -10°C° 0 mm 2 mps 506 mmHg 65%
    15:00 -12°C° 0 mm 2 mps 506 mmHg 69%
    16:00 -13°C° 0 mm 2 mps 505 mmHg 72%
    17:00 -14°C° 0 mm 2 mps 505 mmHg 75%
    18:00 -14°C° 0 mm 2 mps 505 mmHg 75%
    19:00 -12°C° 0 mm 1 mps 505 mmHg 75%
    20:00 -13°C° 0 mm 1 mps 505 mmHg 75%
    21:00 -13°C° 0 mm 1 mps 505 mmHg 73%
    22:00 -13°C° 0 mm 1 mps 505 mmHg 70%
    23:00 -14°C° 0 mm 1 mps 505 mmHg 68%

    Day after tomorrow, 24 January, Thursday

    Time Temperature Precipitation Wind Pressure Humidity
    00:00 -16°C° 0 mm 2 mps 505 mmHg 64%
    01:00 -16°C° 0 mm 2 mps 505 mmHg 61%
    02:00 -17°C° 0 mm 2 mps 505 mmHg 57%
    03:00 -17°C° 0 mm 2 mps 505 mmHg 55%
    04:00 -17°C° 0 mm 2 mps 505 mmHg 52%
    05:00 -17°C° 0 mm 2 mps 505 mmHg 49%
    06:00 -17°C° 0 mm 2 mps 506 mmHg 49%
    07:00 -17°C° 0 mm 2 mps 506 mmHg 48%
    08:00 -17°C° 0 mm 2 mps 507 mmHg 48%
    09:00 -14°C° 0 mm 1 mps 507 mmHg 47%
    10:00 -12°C° 0 mm 1 mps 508 mmHg 47%
    11:00 -11°C° 0 mm 1 mps 509 mmHg 47%
    12:00 -11°C° 0 mm 1 mps 509 mmHg 49%
    13:00 -11°C° 0 mm 1 mps 509 mmHg 51%
    14:00 -11°C° 0 mm 1 mps 509 mmHg 54%
    15:00 -12°C° 0 mm 1 mps 509 mmHg 57%
    16:00 -12°C° 0 mm 1 mps 508 mmHg 61%
    17:00 -13°C° 0 mm 1 mps 508 mmHg 64%
    18:00 -14°C° 0 mm 1 mps 509 mmHg 64%
    19:00 -14°C° 0 mm 1 mps 509 mmHg 64%
    20:00 -14°C° 0 mm 1 mps 509 mmHg 63%
    21:00 -14°C° 0 mm 1 mps 509 mmHg 63%
    22:00 -15°C° 0 mm 1 mps 509 mmHg 62%
    23:00 -15°C° 0 mm 1 mps 509 mmHg 61%

    25 January, Friday

    Time Temperature Precipitation Wind Pressure Humidity
    00:00 -15°C° 0 mm 1 mps 509 mmHg 61%
    01:00 -16°C° 0 mm 1 mps 509 mmHg 61%
    02:00 -16°C° 0 mm 1 mps 508 mmHg 61%
    03:00 -16°C° 0 mm 1 mps 508 mmHg 61%
    04:00 -19°C° 0 mm 2 mps 508 mmHg 61%
    05:00 -19°C° 0 mm 2 mps 508 mmHg 61%
    06:00 -19°C° 0 mm 2 mps 508 mmHg 61%
    07:00 -20°C° 0 mm 2 mps 508 mmHg 62%
    08:00 -20°C° 0 mm 2 mps 509 mmHg 62%
    09:00 -16°C° 0 mm 1 mps 509 mmHg 58%
    10:00 -15°C° 0 mm 1 mps 510 mmHg 54%
    11:00 -13°C° 0 mm 1 mps 510 mmHg 50%
    12:00 -12°C° 0 mm 1 mps 510 mmHg 47%
    13:00 -12°C° 0 mm 1 mps 510 mmHg 44%
    14:00 -11°C° 0 mm 0 mps 511 mmHg 41%
    15:00 -12°C° 0 mm 1 mps 510 mmHg 41%
    16:00 -13°C° 0 mm 1 mps 509 mmHg 41%
    17:00 -15°C° 0 mm 1 mps 509 mmHg 41%
    18:00 -15°C° 0 mm 1 mps 509 mmHg 41%
    19:00 -15°C° 0 mm 1 mps 509 mmHg 41%
    20:00 -18°C° 0 mm 2 mps 509 mmHg 41%
    21:00 -18°C° 0 mm 2 mps 509 mmHg 45%
    22:00 -19°C° 0 mm 2 mps 508 mmHg 49%
    23:00 -19°C° 0 mm 2 mps 508 mmHg 52%

    26 January, Saturday

    Time Temperature Precipitation Wind Pressure Humidity
    00:00 -19°C° 0 mm 2 mps 507 mmHg 55%
    01:00 -20°C° 0 mm 2 mps 507 mmHg 58%
    02:00 -20°C° 0 mm 2 mps 507 mmHg 60%
    03:00 -20°C° 0 mm 2 mps 506 mmHg 60%
    04:00 -20°C° 0 mm 2 mps 506 mmHg 59%
    05:00 -21°C° 0 mm 2 mps 506 mmHg 58%
    06:00 -21°C° 0 mm 2 mps 506 mmHg 56%
    07:00 -20°C° 0 mm 2 mps 506 mmHg 55%
    08:00 -20°C° 0 mm 2 mps 507 mmHg 53%
    09:00 -19°C° 0 mm 2 mps 507 mmHg 51%
    10:00 -17°C° 0 mm 2 mps 508 mmHg 48%
    11:00 -16°C° 0 mm 2 mps 509 mmHg 46%
    12:00 -15°C° 0 mm 2 mps 508 mmHg 44%
    13:00 -15°C° 0 mm 2 mps 508 mmHg 41%
    14:00 -12°C° 0 mm 1 mps 508 mmHg 39%
    15:00 -13°C° 0 mm 1 mps 508 mmHg 37%
    16:00 -14°C° 0 mm 1 mps 508 mmHg 36%
    17:00 -15°C° 0 mm 1 mps 507 mmHg 34%
    18:00 -16°C° 0 mm 1 mps 507 mmHg 32%
    19:00 -16°C° 0 mm 1 mps 508 mmHg 30%
    20:00 -17°C° 0 mm 1 mps 508 mmHg 28%
    21:00 -17°C° 0 mm 1 mps 507 mmHg 25%
    22:00 -17°C° 0 mm 1 mps 507 mmHg 23%
    23:00 -17°C° 0 mm 1 mps 507 mmHg 21%

    27 January, Sunday

    Time Temperature Precipitation Wind Pressure Humidity
    00:00 -18°C° 0 mm 1 mps 507 mmHg 18%
    01:00 -18°C° 0 mm 1 mps 507 mmHg 16%
    02:00 -18°C° 0 mm 1 mps 507 mmHg 13%
    03:00 -18°C° 0 mm 1 mps 506 mmHg 11%
    04:00 -18°C° 0 mm 1 mps 506 mmHg 9%
    05:00 -18°C° 0 mm 1 mps 506 mmHg 7%
    06:00 -18°C° 0 mm 1 mps 507 mmHg 7%
    07:00 -18°C° 0 mm 1 mps 507 mmHg 6%
    08:00 -18°C° 0 mm 1 mps 507 mmHg 6%
    09:00 -16°C° 0 mm 1 mps 508 mmHg 10%
    10:00 -16°C° 0 mm 2 mps 509 mmHg 14%
    11:00 -15°C° 0 mm 2 mps 509 mmHg 18%
    12:00 -14°C° 0 mm 2 mps 509 mmHg 19%
    13:00 -14°C° 0 mm 2 mps 509 mmHg 20%
    14:00 -13°C° 0 mm 2 mps 509 mmHg 21%
    15:00 -13°C° 0 mm 1 mps 508 mmHg 19%
    16:00 -14°C° 0 mm 1 mps 508 mmHg 16%
    17:00 -15°C° 0 mm 1 mps 507 mmHg 13%
    18:00 -15°C° 0 mm 1 mps 507 mmHg 12%
    19:00 -16°C° 0 mm 1 mps 507 mmHg 11%
    20:00 -16°C° 0 mm 1 mps 507 mmHg 10%
    21:00 -17°C° 0 mm 1 mps 507 mmHg 10%
    22:00 -19°C° 0 mm 2 mps 506 mmHg 10%
    23:00 -19°C° 0 mm 2 mps 506 mmHg 10%
    Show more